Change the Weather History Date:

Sunday, September 16, 2012

  Actual Average Record
Temperature  
Mean Temperature 48 °F -  
Max Temperature 50 °F 50 °F 58 °F (1990)
Min Temperature 46 °F 44 °F 34 °F (1983)
Degree Days  
Heating Degree Days 17    
Moisture  
Dew Point 40 °F    
Average Humidity 76    
Maximum Humidity 93    
Minimum Humidity 62    
Precipitation  
Precipitation 0.00 in - - ()
Sea Level Pressure  
Sea Level Pressure 29.31 in    
Wind  
Wind Speed 29 mph (SW)    
Max Wind Speed 45 mph    
Max Gust Speed 60 mph    
Visibility 9 miles    
Events      
Averages and records for this station are not official NWS values.
T = Trace of Precipitation, MM = Missing Value Source: NWS Daily Summary

Daily Weather History Graph

Daily Weather History Graph

Search for Another Location

Airport or City:

Trip Planner

Search our weather history database for the weather conditions in past years. The results will help you decide how hot, cold, wet, or windy it might be!

Date:

Astronomy

Sep. 16, 2012 Rise Set
Actual Time 8:17 AM AKDT 8:54 PM AKDT
Civil Twilight 7:40 AM AKDT 9:31 PM AKDT
Nautical Twilight 6:56 AM AKDT 10:15 PM AKDT
Astronomical Twilight 6:08 AM AKDT 11:02 PM AKDT
Moon 9:30 AM AKDT (9/16) 8:41 PM AKDT (9/16)
Length of Visible Light 13h 50m
Length of Day
12h 37m
New Moon, 1% of the Moon is Illuminated
Sep 16
New Moon
Sep 22
First Quarter
Sep 29
Full
Oct 7
Last Quarter
Oct 15
New

Hourly Weather History & Observations

Time (AKDT) Temp. Windchill Dew Point Humidity Pressure Visibility Wind Dir Wind Speed Gust Speed Precip Events Conditions
12:16 AM 48.2 °F - 42.8 °F 82% 28.96 in 10.0 mi South 40.3 mph 52.9 mph N/A   Overcast
12:56 AM 48.2 °F - 42.8 °F 82% 28.95 in 9.0 mi South 38.0 mph 50.6 mph N/A   Overcast
1:16 AM 48.2 °F - 42.8 °F 82% 28.95 in 10.0 mi South 39.1 mph 52.9 mph N/A   Overcast
1:36 AM 48.2 °F - 42.8 °F 82% 28.93 in 9.0 mi South 43.7 mph 59.8 mph N/A   Overcast
1:56 AM 46.4 °F 36.1 °F 42.8 °F 87% 28.94 in 9.0 mi South 38.0 mph 55.2 mph N/A   Overcast
2:16 AM 48.2 °F - 44.6 °F 87% 28.92 in 10.0 mi South 42.6 mph 52.9 mph N/A   Overcast
2:36 AM 46.4 °F 35.6 °F 44.6 °F 93% 28.92 in 3.0 mi South 42.6 mph 54.1 mph N/A   Overcast
2:56 AM 46.4 °F 35.7 °F 42.8 °F 87% 28.89 in 10.0 mi South 41.4 mph 48.3 mph N/A   Overcast
3:16 AM 46.4 °F 36.3 °F 42.8 °F 87% 28.90 in 7.0 mi South 36.8 mph 46.0 mph N/A   Overcast
3:36 AM 46.4 °F 35.3 °F 42.8 °F 87% 28.88 in 7.0 mi South 44.9 mph 51.8 mph N/A   Overcast
3:56 AM 46.4 °F 35.6 °F 42.8 °F 87% 28.89 in 5.0 mi South 42.6 mph 52.9 mph N/A   Overcast
4:36 AM 46.4 °F 36.0 °F 44.6 °F 93% 28.87 in 4.0 mi South 39.1 mph 51.8 mph N/A   Overcast
4:56 AM 46.4 °F 36.9 °F 44.6 °F 93% 28.88 in 4.0 mi South 32.2 mph 43.7 mph N/A   Overcast
5:16 AM 46.4 °F 37.2 °F 44.6 °F 93% 28.88 in 5.0 mi South 29.9 mph 44.9 mph N/A   Overcast
5:36 AM 46.4 °F 37.9 °F 44.6 °F 93% 28.90 in 7.0 mi SSW 25.3 mph 43.7 mph N/A   Overcast
5:56 AM 46.4 °F 37.0 °F 44.6 °F 93% 28.90 in 5.0 mi SSW 31.1 mph 44.9 mph N/A   Overcast
6:16 AM 46.4 °F 37.2 °F 44.6 °F 93% 28.92 in 9.0 mi SW 29.9 mph 43.7 mph N/A   Overcast
6:36 AM 48.2 °F - 42.8 °F 82% 28.93 in 10.0 mi SSW 28.8 mph 39.1 mph N/A   Overcast
6:56 AM 48.2 °F - 42.8 °F 82% 28.95 in 10.0 mi SSW 25.3 mph 39.1 mph N/A   Overcast
7:16 AM 48.2 °F - 42.8 °F 82% 28.94 in 10.0 mi SW 36.8 mph 48.3 mph N/A   Mostly Cloudy
7:36 AM 48.2 °F - 42.8 °F 82% 29.00 in 10.0 mi WSW 26.5 mph 44.9 mph N/A   Mostly Cloudy
7:56 AM 48.2 °F - 41.0 °F 76% 29.02 in 10.0 mi SW 20.7 mph 43.7 mph N/A   Overcast
8:16 AM 48.2 °F - 41.0 °F 76% 29.06 in 10.0 mi WSW 19.6 mph 43.7 mph N/A   Overcast
8:36 AM 48.2 °F - 41.0 °F 76% 29.08 in 10.0 mi WSW 16.1 mph 32.2 mph N/A   Overcast
9:16 AM 48.2 °F - 41.0 °F 76% 29.11 in 10.0 mi SW 27.6 mph 41.4 mph N/A   Overcast
9:36 AM 48.2 °F - 42.8 °F 82% 29.13 in 10.0 mi WSW 23.0 mph 31.1 mph N/A   Overcast
9:56 AM 48.2 °F - 42.8 °F 82% 29.16 in 10.0 mi SW 23.0 mph 34.5 mph N/A   Overcast
10:16 AM 48.2 °F - 41.0 °F 76% 29.18 in 10.0 mi SW 26.5 mph 40.3 mph N/A   Overcast
10:36 AM 48.2 °F - 42.8 °F 82% 29.20 in 9.0 mi SW 27.6 mph 39.1 mph N/A   Overcast
10:56 AM 48.2 °F - 41.0 °F 76% 29.24 in 10.0 mi WSW 23.0 mph 34.5 mph N/A   Mostly Cloudy
11:16 AM 48.2 °F - 41.0 °F 76% 29.26 in 10.0 mi SW 17.3 mph 33.4 mph N/A   Mostly Cloudy
11:36 AM 48.2 °F - 39.2 °F 71% 29.29 in 10.0 mi WSW 24.2 mph 31.1 mph N/A   Mostly Cloudy
11:56 AM 48.2 °F - 39.2 °F 71% 29.29 in 10.0 mi SW 24.2 mph 38.0 mph N/A   Mostly Cloudy
12:16 PM 48.2 °F - 39.2 °F 71% 29.32 in 10.0 mi SW 23.0 mph 36.8 mph N/A   Mostly Cloudy
12:36 PM 48.2 °F - 39.2 °F 71% 29.34 in 10.0 mi SW 28.8 mph 39.1 mph N/A   Mostly Cloudy
12:56 PM 48.2 °F - 39.2 °F 71% 29.37 in 10.0 mi WSW 19.6 mph 32.2 mph N/A   Mostly Cloudy
1:16 PM 48.2 °F - 39.2 °F 71% 29.39 in 10.0 mi WSW 21.9 mph 34.5 mph N/A   Mostly Cloudy
1:36 PM 48.2 °F - 39.2 °F 71% 29.41 in 10.0 mi WSW 18.4 mph 29.9 mph N/A   Mostly Cloudy
1:56 PM 48.2 °F - 39.2 °F 71% 29.42 in 10.0 mi WSW 21.9 mph 32.2 mph N/A   Mostly Cloudy
2:16 PM 48.2 °F - 37.4 °F 66% 29.43 in 10.0 mi SW 25.3 mph 34.5 mph N/A   Mostly Cloudy
2:36 PM 48.2 °F - 37.4 °F 66% 29.47 in 10.0 mi WSW 18.4 mph 33.4 mph N/A   Mostly Cloudy
2:56 PM 48.2 °F - 37.4 °F 66% 29.48 in 10.0 mi WSW 16.1 mph 28.8 mph N/A   Mostly Cloudy
3:16 PM 48.2 °F - 37.4 °F 66% 29.49 in 10.0 mi WSW 17.3 mph 26.5 mph N/A   Mostly Cloudy
3:36 PM 48.2 °F - 37.4 °F 66% 29.50 in 10.0 mi WSW 21.9 mph 31.1 mph N/A   Mostly Cloudy
3:56 PM 50.0 °F - 37.4 °F 62% 29.52 in 10.0 mi WSW 16.1 mph 29.9 mph N/A   Mostly Cloudy
4:16 PM 48.2 °F - 37.4 °F 66% 29.54 in 10.0 mi WSW 10.4 mph 29.9 mph N/A   Mostly Cloudy
4:36 PM 48.2 °F - 37.4 °F 66% 29.55 in 10.0 mi SW 15.0 mph 21.9 mph N/A   Mostly Cloudy
4:56 PM 48.2 °F - 37.4 °F 66% 29.56 in 10.0 mi SW 18.4 mph 24.2 mph N/A   Mostly Cloudy
5:16 PM 50.0 °F - 37.4 °F 62% 29.58 in 10.0 mi SW 13.8 mph 23.0 mph N/A   Mostly Cloudy
5:36 PM 50.0 °F - 37.4 °F 62% 29.58 in 10.0 mi SW 21.9 mph 27.6 mph N/A   Mostly Cloudy
5:56 PM 48.2 °F - 37.4 °F 66% 29.59 in 10.0 mi SW 20.7 mph 25.3 mph N/A   Mostly Cloudy
6:16 PM 48.2 °F - 37.4 °F 66% 29.61 in 10.0 mi WSW 10.4 mph 27.6 mph N/A   Mostly Cloudy
6:36 PM 48.2 °F - 37.4 °F 66% 29.62 in 10.0 mi SW 13.8 mph 24.2 mph N/A   Mostly Cloudy
6:56 PM 48.2 °F - 37.4 °F 66% 29.63 in 10.0 mi SW 10.4 mph 24.2 mph N/A   Mostly Cloudy
7:16 PM 48.2 °F - 37.4 °F 66% 29.63 in 10.0 mi SW 16.1 mph 24.2 mph N/A   Mostly Cloudy
7:36 PM 48.2 °F - 39.2 °F 71% 29.64 in 10.0 mi SW 18.4 mph 21.9 mph N/A   Scattered Clouds
7:56 PM 48.2 °F - 39.2 °F 71% 29.65 in 10.0 mi SSW 17.3 mph - N/A   Scattered Clouds
8:16 PM 48.2 °F - 39.2 °F 71% 29.66 in 10.0 mi SW 17.3 mph 21.9 mph N/A   Mostly Cloudy
8:36 PM 46.4 °F 38.7 °F 39.2 °F 76% 29.67 in 10.0 mi WSW 20.7 mph 29.9 mph N/A   Mostly Cloudy
8:56 PM 46.4 °F 40.4 °F 39.2 °F 76% 29.68 in 10.0 mi SW 13.8 mph 19.6 mph N/A   Overcast
9:16 PM 46.4 °F 41.9 °F 39.2 °F 76% 29.69 in 10.0 mi SSW 9.2 mph - N/A   Mostly Cloudy
9:36 PM 46.4 °F 40.4 °F 39.2 °F 76% 29.69 in 10.0 mi SW 13.8 mph 19.6 mph N/A   Mostly Cloudy
9:56 PM 46.4 °F 40.4 °F 39.2 °F 76% 29.70 in 10.0 mi SSW 13.8 mph 18.4 mph N/A   Overcast
10:16 PM 46.4 °F 40.1 °F 39.2 °F 76% 29.71 in 10.0 mi SW 15.0 mph 19.6 mph N/A   Mostly Cloudy
10:36 PM 46.4 °F 39.8 °F 39.2 °F 76% 29.72 in 10.0 mi SSW 16.1 mph 21.9 mph N/A   Mostly Cloudy
10:56 PM 46.4 °F 40.4 °F 39.2 °F 76% 29.72 in 10.0 mi SSW 13.8 mph - N/A   Overcast
11:16 PM 46.4 °F 39.8 °F 41.0 °F 81% 29.73 in 10.0 mi South 16.1 mph 19.6 mph N/A   Overcast
11:36 PM 46.4 °F 39.8 °F 39.2 °F 76% 29.74 in 10.0 mi SSW 16.1 mph - N/A   Overcast
11:56 PM 46.4 °F 40.7 °F 39.2 °F 76% 29.75 in 10.0 mi SSW 12.7 mph 20.7 mph N/A   Mostly Cloudy